Погода в Боре

Погода в Боре : погода сейчас, прогноз погоды и архив. Всё, что Вы хотите узнать о погоде в Боре!

Хотите узнать прогноз погоды в Боре? Тогда Вам сюда: Погода в Боре

Поиск расширенной информации на нашем сайте:

Другие новости

Новости СМИ2

Главная страница сайта

Новости сайта

03.07.2017

Напоминаем, что на нашем специализированном сайте Метеоцентр.Азия вы можете получить высокодетализированные автоматические прогнозы погоды по пунктам России, СНГ и мира в авиационном формате (включающие направление и скорость ветра, видимость, явления погоды, количество и форму облачности, нижнюю и верхнюю границу облачности).

Рекомендуем: http://odeon-mebel.by/ детские кровати в витебске фото и цены.

Погода в Боре - сегодня

Время (UTC), дата Ветер
(°,м/с) 
Видим.   Явления Облачность Т
(°С)
Тd
(°С)
f(%) Тe
(°С)
Pmin
(гПа)
dP
(гПа)
Po
(мм)
O2
(г/м3)
Тmin Tmax R s Состояние
почвы
21 11.12.17 тихо ()   н/о  слаб. снег  10/0 средняя 
[As op]
-16.6 -18.5 85 -17  1027.6  -0.7  765  330           
00 12.12.17 тихо ()   н/о  слаб. снег  10/0 средняя 
[As op]
-17.4 -19.3 85 -17  1026.5  -1.1  764  330  -17.7    0.4  63  равномерный
сухой снег
100% 
03 12.12.17 тихо ()   н/о  слаб. снег  10/0 средняя 
[As op]
-17.9 -19.8 85 -18  1026.5  -0.2  764  331           
06 12.12.17 тихо ()   18000 м  слаб. снег  8/3 600 м верхняя 
[Sc|Cs]
-17.6 -19.5 85 -18  1026.5  764  331           
09 12.12.17 тихо ()   18000 м  слаб. снег  8/3 600 м верхняя 
[Sc|Cs]
-17.7 -19.6 85 -18  1026.5  764  331           
12 12.12.17 300 (СЗ) н/о  слаб. снег  4/0 верхняя 
[Cs]
-20.7 -22.6 85 -21  1027.3  0.8  764  335    -17.5  0.2     
15 12.12.17 тихо ()   н/о  слаб. снег  8/0 верхняя 
[Cs]
-23.1 -25 84 -23  1027.9  0.5  765  338           
18 12.12.17 тихо ()   н/о  слаб. снег  10/0 верхняя 
[Cs]
-23.8 -26.3 80 -24  1028.8  0.9  766  340           
21 12.12.17 тихо ()   н/о  слаб. снег  10/0 верхняя 
[Cs]
-23.1 -25 84 -23  1029.1  0.3  766  339           
00 13.12.17 тихо ()   н/о  слаб. снег  10/5 600 м верхняя 
[Sc|Cs]
-22.3 -24.2 85 -22  1030  767  338  -24    0.5  62  равномерный
сухой снег
100% 
03 13.12.17 тихо ()   н/о  слаб. снег  10/8 660 м верхняя 
[Sc|Cs]
-21 -23.5 80 -21  1030.2  0.2  767  336           
06 13.12.17 260 (З) 18000 м  слаб. снег  10/8 600 м верхняя 
[Sc|Cs]
-18.3 -20.2 85 -19  1030.7  0.5  767  333           
09 13.12.17 280 (З) н/о  {снег}  10/6 600 м верхняя 
[Sc|Cs]
-18.6 -21.2 80 -19  1032  1.3  768  334           
12 13.12.17 тихо ()   н/о  {снег}  8/0 верхняя 
[Ci fib]
-23.2 -25.7 80 -23  1034.2  770  341    -17.9  0.0     
15 13.12.17 300 (СЗ) н/о    4/0 верхняя 
[Ci fib]
-26.8   1036  1.8  771             
18 13.12.17 тихо ()   н/о    3/0 верхняя 
[Ci fib]
-25.5 -28 80 -26  1037.3  1.3  772  345           
21 13.12.17 тихо ()   н/о    ясно 
-25.5 -28 80 -26  1038.1  0.8  772  345           
00 14.12.17 тихо ()   н/о  слаб. снег  6/0 верхняя 
[Cs]
-23.7 -26.3 79 -24  1038.1  772  343  -25.6    0.0  62  равномерный
сухой снег
100% 
03 14.12.17 тихо ()   н/о  слаб. снег  10/0 верхняя 
[Cs]
-20.7 -23.2 80 -21  1038.4  0.5  773  339           
06 14.12.17 170 (Ю) 18000 м  слаб. снег  10/0 средняя 
[As op]
-18.1 -20 85 -18  1038.4  773  335           
09 14.12.17 240 (ЮЗ) 17000 м  слаб. снег  10/0 средняя 
[As op]
-16.6 -18.5 85 -17  1038.3  773  333           
12 14.12.17 210 (ЮЗ) н/о  слаб. снег  10/0 средняя 
[As op]
-15 -17 85 -15  1038.3  773  331    -14.9     
15 14.12.17 220 (ЮЗ) н/о  слаб. снег  10/0 средняя 
[As op]
-15.5 -18.2 80 -18  1037.5  -0.8  772  331           
18 14.12.17 210 (ЮЗ) н/о  {снег}  10/0 верхняя 
[Cs]
-16 -18.7 80 -18  1036.9  -0.6  772  332           
21 14.12.17 190 (Ю) н/о    10/0 верхняя 
[Cs]
-15.7 -18.4 80 -16  1035.2  -1.7  770  331           
Время (UTC), дата Ветер
(°,м/с) 
Видим.   Явления Облачность Т
(°С)
Тd
(°С)
f(%) Тe
(°С)
Pmin
(гПа)
dP
(гПа)
Po
(мм)
O2
(г/м3)
Тmin Tmax R s Состояние
почвы

Для получения пояснительной информации подведите курсор к названию столбца.

ПОГОДА в Боре - архив

Всё, что Вы хотите узнать о погоде в Боре - удобно и подробно!

Выберите нужную дату (начиная с 1 января 2015* года) и нажмите кнопку "Найти".
Будут отображены архивные сводки погоды по пункту Бор, начиная с указанной даты.


Отображать данные в формате CSV (для использования в таблицах Excel)


Внимание! Наш архив погоды предназначен исключительно для личного некоммерческого использования в познавательных целях. Если Вам необходимы официальные справки о состоянии погоды (для производственных, юридических, коммерческих и т.п. целей), обращайтесь в органы Росгидромета.

*Примечание: данная дата относится к архиву по метеостанциям СССР (Россия, СНГ, Балтия).
Архив по метеостанциям Зарубежной Европы и Азии (кроме Китая) хранится 10 дней, по другим регионам земного шара (Китай, Африка, Америка, Австралия, Океания) - 1 день.

Бор - район местоположения метеостанции


Название, широта, долгота, высота метеостанции:
Бор 61.6°ш. 90°д. 58 м над ур. моря [Российская Федерация]

Дополнительная информация

В oтличие oт бoльшинства пoгoдных сайтoв мы публикуем пoдрoбную метеoинфoрмацию в детальнoм прoфессиoнальнoм фoрмате.

Характеристики температуры и влажнoсти вoздуха измеряются на высoте 2 м в тени вдали oт зданий и деревьев.
Скoрoсть ветра измеряется на высoте 10 м (на урoвне рoста челoвека скoрoсть ветра ниже в 1.5-2 раза). Если метеoстанция нахoдится в гoрoде или в лесу, тo скoрoсть ветра занижена на 2-4 м/с пo сравнению с oткрытым местoм. Скoрoсть ветра над акватoриями крупных рек и oзёр, а также на вершинах хoлмoв на 2-5 м/с выше, чем в oбычных услoвиях.
Атмoсфернoе давление в разных тoчках местнoсти мoжет значительнo oтличаться oт давления на метеoстанции, в зависимoсти oт услoвий рельефа (при пoдъёме на 10 м давление пoнижается примернo на 1 мм рт.ст.).